Loisir ou Compétition : Rejoignez un Club de la Fédération

Résultats

Coupe du Dauphine Classique Meaudre

AUTRANS

FS Dames

Jury de Compétition

Délégué Technique :
GALLIN LIONEL (DA)
D.T. Adjoint :
 
Dir. Epreuve :
GAILLARD LILIAN (DA)

Caractéristiques de la Piste

Piste :
REPLI
Distance :
4 km
Point Haut :
 
Point Bas :
 
Montée Tot. :
 
Montée Max. :
 
Homologation :
 

Pénalité Appliquée :
 
Coefficient :
 

Catégorie :
U15
Style :
C
Clt Dos Clt/Cat Code An Nom Prénom Com Club Temps Ecart Points
Classés
1 196 1/U15 FFS2676140 2005 DODE LILY DA SNO 13:35.1 00:00.0
2 198 2/U15 FFS2670330 2005 FOULON JUSTINE DA CS VILLARD 13:41.3 00:06.2
3 206 3/U15 FFS2676312 2006 COUPAT ANNETTE FZ BESSAT S HIV 13:42.7 00:07.6
4 193 4/U15 FFS2681492 2006 DUSSERRE ALICE DA CS VILLARD 13:51.6 00:16.5
5 217 5/U15 FFS2682758 2005 MAUPOIX CAMILLE DA CO 7 LAUX GR 13:57.6 00:22.5
6 194 6/U15 FFS2676157 2006 DONET FLORE DA SA MEAUDRAIS 14:01.2 00:26.1
7 197 7/U15 FFS2684409 2006 MORETTI LENA DA CS VILLARD 14:02.4 00:27.3
8 183 8/U15 FFS2676072 2006 BREYTON BOUVIER LIV DA SN CHARTROUS 14:12.0 00:36.9
9 195 9/U15 FFS2675761 2006 PELLEGRIN MELYNE DA SNB CHAMROUS 14:14.1 00:39.0
10 192 10/U15 FFS2692290 2006 VASSAL LILI DA CS VILLARD 14:26.5 00:51.4
11 208 11/U15 FFS2681595 2006 GATIE SELENE DA SN CHARTROUS 14:28.3 00:53.2
12 190 12/U15 FFS2686334 2006 PIC CALINE DA SNB CHAMROUS 14:40.4 01:05.3
13 214 13/U15 FFS2696668 2006 BOURGON JEANNE MJ SC VERRIERES 14:45.8 01:10.7
14 218 14/U15 FFS2675532 2006 VITTOZ LOUNA DA SA MEAUDRAIS 14:46.6 01:11.5
14 219 14/U15 FFS2682226 2005 MAYOUSSE JEANNE DA US AUTRANNAI 14:46.6 01:11.5
16 181 16/U15 FFS2682358 2006 BARDINET FANTINE DA SNO 14:49.6 01:14.5
17 184 17/U15 FFS2674768 2006 GLEYZOLLE THAIS DA US AUTRANNAI 14:56.9 01:21.8
18 212 18/U15 FFS2692011 2005 PISTONE JULIETTE DA GUC GRENOBLE 14:58.5 01:23.4
19 182 19/U15 FFS2670518 2005 DESPLANQUES MYRTILLE DA SA MEAUDRAIS 14:58.6 01:23.5
20 213 20/U15 FFS2677798 2006 COMBEAU ROMANE DA SNO 15:00.0 01:24.9
21 215 21/U15 FFS2673634 2006 FOURCY GIRAUD AUBAINE DA CO 7 LAUX GR 15:02.2 01:27.1
22 199 22/U15 FFS2697124 2006 MARGUERON RAPHAELLE DA GUC GRENOBLE 15:09.0 01:33.9
23 211 23/U15 FFS2687726 2006 BRUEL MANON DA CS VILLARD 15:12.4 01:37.3
24 216 24/U15 FFS2678409 2005 BROUARD ALICE DA SA MEAUDRAIS 15:17.2 01:42.1
25 202 25/U15 FFS2675531 2006 CHAMPAGNAC FANTINE DA SA MEAUDRAIS 15:29.1 01:54.0
26 187 26/U15 FFS2670626 2005 FRANCAIS CHLOE DA GUC GRENOBLE 15:32.5 01:57.4
27 191 27/U15 FFS2677876 2006 AZAMBRE MATHILDE DA US AUTRANNAI 15:34.1 01:59.0
28 189 28/U15 FFS2686868 2006 BONZI ANTONELLA DA US AUTRANNAI 15:38.4 02:03.3
29 209 29/U15 FFS2670875 2005 LECONTE ANNE DA US AUTRANNAI 15:41.4 02:06.3
30 186 30/U15 FFS2676288 2006 COSTE HANNA LIV DA US AUTRANNAI 15:58.1 02:23.0
31 200 31/U15 FFS2691407 2006 MIEHE NAWEL DA SNB CHAMROUS 16:01.2 02:26.1
32 203 32/U15 FFS2677877 2006 FAVARIN TIZIANA DA SA MEAUDRAIS 16:16.4 02:41.3
33 207 33/U15 FFS2674482 2006 PORRET LINA DA US AUTRANNAI 16:44.7 03:09.6
34 210 34/U15 FFS2671057 2005 DELVIGNE LEONIE DA SM AIGUILLE 16:59.4 03:24.3
35 204 35/U15 FFS2700388 2006 BREYSSE ISALINE DA ADDSN ARDECH 17:27.9 03:52.8
Non partants
185 FFS2681594 2006 DOUILLET COLOMBE DA SN CHARTROUS
188 FFS2675613 2006 THIEVENT LIV DA SN CHARTROUS
201 FFS2669456 2006 FILLIARD SWANI DA CS VILLARD
205 FFS2681265 2006 BOEUF MAE DA SNB CHAMROUS